AAL302 KJFK-KLAX

Flight info

Callsign AAL302
Flight time 5h 57m
Altitude 30000
Route RBV Q430 AIR J80 VHP/N0446F320 J80 MCI J24 SLN J102 ALS J44 RSK/N0444F340 J64 TBC JASSE Q90 DNERO ANJLL4
Aircraft B738/M-SDE2E3FGHIRWXY/LB1

Departure

Time 2026-05-08 23:34
Airport John F. Kennedy International Airport (KJFK)

Arrival

Time 2026-05-09 05:31
Airport Los Angeles International Airport (KLAX)
Time Latitude Longitude Altitude Speed Heading
2026-05-08 23:01 40.63845 -73.78037 22 ft 0 kts 263°
2026-05-08 23:22 40.63848 -73.78009 24 ft 4 kts 263°
2026-05-08 23:22 40.63851 -73.77976 25 ft 2 kts 263°
2026-05-08 23:22 40.63857 -73.77948 22 ft 4 kts 226°
2026-05-08 23:23 40.63878 -73.77933 24 ft 4 kts 182°
2026-05-08 23:23 40.63903 -73.77935 24 ft 4 kts 173°
2026-05-08 23:23 40.63930 -73.77940 23 ft 4 kts 173°
2026-05-08 23:23 40.63957 -73.77944 23 ft 4 kts 173°
2026-05-08 23:24 40.63983 -73.77948 25 ft 4 kts 173°
2026-05-08 23:24 40.64004 -73.77952 24 ft 4 kts 167°
2026-05-08 23:24 40.64028 -73.77962 23 ft 4 kts 152°
2026-05-08 23:24 40.64047 -73.77976 24 ft 4 kts 150°
2026-05-08 23:25 40.64052 -73.77980 23 ft 1 kts 150°
2026-05-08 23:26 40.64044 -73.77974 24 ft 5 kts 150°
2026-05-08 23:26 40.63998 -73.77951 23 ft 10 kts 171°
2026-05-08 23:27 40.63924 -73.77939 24 ft 11 kts 173°
2026-05-08 23:27 40.63849 -73.77927 23 ft 11 kts 173°
2026-05-08 23:27 40.63776 -73.77915 22 ft 10 kts 173°
2026-05-08 23:27 40.63706 -73.77904 22 ft 10 kts 173°
2026-05-08 23:28 40.63638 -73.77894 22 ft 10 kts 173°
2026-05-08 23:28 40.63585 -73.77875 23 ft 4 kts 146°
2026-05-08 23:28 40.63585 -73.77874 23 ft 0 kts 146°
2026-05-08 23:29 40.63584 -73.77874 23 ft 1 kts 146°
2026-05-08 23:29 40.63561 -73.77838 23 ft 9 kts 122°
2026-05-08 23:29 40.63501 -73.77830 22 ft 10 kts 207°
2026-05-08 23:29 40.63445 -73.77877 23 ft 9 kts 212°
2026-05-08 23:30 40.63389 -73.77919 23 ft 9 kts 193°
2026-05-08 23:30 40.63351 -73.77900 24 ft 9 kts 132°
2026-05-08 23:30 40.63318 -73.77831 27 ft 9 kts 121°
2026-05-08 23:30 40.63284 -73.77755 26 ft 11 kts 121°
2026-05-08 23:31 40.63241 -73.77660 27 ft 12 kts 121°
2026-05-08 23:31 40.63197 -73.77564 29 ft 12 kts 121°
2026-05-08 23:31 40.63155 -73.77469 29 ft 12 kts 120°
2026-05-08 23:31 40.63115 -73.77377 27 ft 11 kts 120°
2026-05-08 23:32 40.63073 -73.77289 26 ft 11 kts 121°
2026-05-08 23:32 40.63034 -73.77202 31 ft 11 kts 120°
2026-05-08 23:32 40.62995 -73.77118 25 ft 11 kts 127°
2026-05-08 23:32 40.62927 -73.77103 25 ft 11 kts 204°
2026-05-08 23:33 40.62863 -73.77151 24 ft 10 kts 211°
2026-05-08 23:33 40.62818 -73.77215 22 ft 10 kts 270°
2026-05-08 23:33 40.62867 -73.77329 26 ft 30 kts 301°
2026-05-08 23:33 40.63087 -73.77813 28 ft 94 kts 301°
2026-05-08 23:34 40.63523 -73.78777 26 ft 149 kts 302°
2026-05-08 23:34 40.64122 -73.80059 213 ft 177 kts 305°
2026-05-08 23:34 40.64776 -73.81434 869 ft 174 kts 303°
2026-05-08 23:34 40.65354 -73.82717 1709 ft 168 kts 294°
2026-05-08 23:35 40.65517 -73.84298 1952 ft 192 kts 260°
2026-05-08 23:35 40.64859 -73.85877 2302 ft 208 kts 221°
2026-05-08 23:35 40.63536 -73.86673 2826 ft 213 kts 206°
2026-05-08 23:35 40.62184 -73.87437 3420 ft 212 kts 208°
2026-05-08 23:36 40.60840 -73.88217 4016 ft 212 kts 209°
2026-05-08 23:36 40.59572 -73.89219 4357 ft 219 kts 231°
2026-05-08 23:36 40.58608 -73.90783 4782 ft 226 kts 234°
2026-05-08 23:36 40.57573 -73.92466 5068 ft 247 kts 234°
2026-05-08 23:37 40.56480 -73.94208 5831 ft 246 kts 233°
2026-05-08 23:37 40.55395 -73.95912 6687 ft 243 kts 234°
2026-05-08 23:37 40.54304 -73.97615 7364 ft 246 kts 234°
2026-05-08 23:37 40.53195 -73.99336 8111 ft 244 kts 234°
2026-05-08 23:38 40.52133 -74.00970 9131 ft 230 kts 234°
2026-05-08 23:38 40.51128 -74.02510 10116 ft 216 kts 235°
2026-05-08 23:38 40.50181 -74.03962 10704 ft 218 kts 236°
2026-05-08 23:38 40.49130 -74.05603 10482 ft 254 kts 235°
2026-05-08 23:39 40.47947 -74.07432 10655 ft 273 kts 234°
2026-05-08 23:39 40.46664 -74.09403 10806 ft 294 kts 234°
2026-05-08 23:39 40.45301 -74.11489 10936 ft 313 kts 234°
2026-05-08 23:39 40.43850 -74.13703 11109 ft 330 kts 234°
2026-05-08 23:40 40.42341 -74.15997 11566 ft 338 kts 234°
2026-05-08 23:40 40.40824 -74.18296 12158 ft 341 kts 234°
2026-05-08 23:40 40.39279 -74.20639 12776 ft 344 kts 235°
2026-05-08 23:40 40.37713 -74.23015 13347 ft 348 kts 236°
2026-05-08 23:41 40.36149 -74.25387 13910 ft 352 kts 236°
2026-05-08 23:41 40.34556 -74.27803 14443 ft 355 kts 236°
2026-05-08 23:41 40.32964 -74.30215 14988 ft 357 kts 236°
2026-05-08 23:41 40.31334 -74.32684 15522 ft 360 kts 236°
2026-05-08 23:42 40.29699 -74.35159 16038 ft 363 kts 236°
2026-05-08 23:42 40.28074 -74.37616 16535 ft 365 kts 235°
2026-05-08 23:42 40.26430 -74.40102 17042 ft 368 kts 236°
2026-05-08 23:42 40.24758 -74.42628 17566 ft 370 kts 236°
2026-05-08 23:43 40.23086 -74.45150 18093 ft 372 kts 236°
2026-05-08 23:43 40.21574 -74.47821 18529 ft 368 kts 246°
2026-05-08 23:43 40.20535 -74.50775 18997 ft 363 kts 255°
2026-05-08 23:43 40.19851 -74.53822 19462 ft 359 kts 263°
2026-05-08 23:44 40.19543 -74.57073 19924 ft 359 kts 267°
2026-05-08 23:44 40.19318 -74.60120 20343 ft 360 kts 268°
2026-05-08 23:44 40.19081 -74.63409 20783 ft 362 kts 268°
2026-05-08 23:44 40.18849 -74.66580 21204 ft 363 kts 268°
2026-05-08 23:45 40.18604 -74.69858 21650 ft 364 kts 268°
2026-05-08 23:45 40.18356 -74.73101 22067 ft 366 kts 268°
2026-05-08 23:45 40.18098 -74.76425 22466 ft 368 kts 268°
2026-05-08 23:45 40.17840 -74.79718 22867 ft 369 kts 268°
2026-05-08 23:46 40.17580 -74.83002 23276 ft 370 kts 268°
2026-05-08 23:46 40.17319 -74.86285 23651 ft 371 kts 268°
2026-05-08 23:46 40.17056 -74.89569 23987 ft 372 kts 268°
2026-05-08 23:46 40.16787 -74.92915 24339 ft 373 kts 268°
2026-05-08 23:47 40.16520 -74.96226 24681 ft 373 kts 268°
2026-05-08 23:47 40.16253 -74.99528 25011 ft 374 kts 268°
2026-05-08 23:47 40.15981 -75.02888 25351 ft 374 kts 268°
2026-05-08 23:47 40.15709 -75.06223 25677 ft 374 kts 268°
2026-05-08 23:48 40.15443 -75.09470 26151 ft 370 kts 268°
2026-05-08 23:48 40.15173 -75.12756 26663 ft 366 kts 268°
2026-05-08 23:48 40.14904 -75.16021 27178 ft 362 kts 268°
2026-05-08 23:48 40.14636 -75.19260 27637 ft 359 kts 267°
2026-05-08 23:49 40.14370 -75.22482 28051 ft 357 kts 267°
2026-05-08 23:49 40.14109 -75.25626 28489 ft 354 kts 267°
2026-05-08 23:49 40.13847 -75.28780 28951 ft 351 kts 267°
2026-05-08 23:49 40.13582 -75.31953 29318 ft 351 kts 267°
2026-05-08 23:50 40.13318 -75.35110 29558 ft 353 kts 267°
2026-05-08 23:50 40.13052 -75.38270 29813 ft 354 kts 267°
2026-05-08 23:50 40.12781 -75.41425 29930 ft 356 kts 267°
2026-05-08 23:50 40.12499 -75.44670 29949 ft 358 kts 266°
2026-05-08 23:51 40.11938 -75.51060 29940 ft 355 kts 266°
2026-05-08 23:51 40.11381 -75.57398 29947 ft 352 kts 266°
2026-05-08 23:52 40.10826 -75.63679 29942 ft 351 kts 266°
2026-05-08 23:52 40.10267 -75.69981 29948 ft 350 kts 266°
2026-05-08 23:53 40.09709 -75.76235 29950 ft 351 kts 266°
2026-05-08 23:53 40.09148 -75.82485 29940 ft 352 kts 266°
2026-05-08 23:54 40.08582 -75.88799 29942 ft 354 kts 266°
2026-05-08 23:55 40.07735 -75.98233 29934 ft 356 kts 266°
2026-05-08 23:55 40.07159 -76.04598 29948 ft 357 kts 266°
2026-05-08 23:56 40.06580 -76.10965 29906 ft 358 kts 266°
2026-05-08 23:56 40.05992 -76.17377 29935 ft 358 kts 266°
2026-05-08 23:57 40.05407 -76.23722 29933 ft 357 kts 266°
2026-05-08 23:57 40.04812 -76.30139 29929 ft 357 kts 266°
2026-05-08 23:58 40.04220 -76.36478 29928 ft 356 kts 266°
2026-05-08 23:58 40.03629 -76.42789 29927 ft 355 kts 266°
2026-05-08 23:59 40.03033 -76.49100 29933 ft 355 kts 266°
2026-05-08 23:59 40.02443 -76.55301 29937 ft 354 kts 266°
2026-05-09 00:00 40.01844 -76.61553 29934 ft 354 kts 266°
2026-05-09 00:00 40.01241 -76.67819 29942 ft 354 kts 266°
2026-05-09 00:01 40.00625 -76.74198 29940 ft 354 kts 266°
2026-05-09 00:01 40.00015 -76.80476 29944 ft 353 kts 266°
2026-05-09 00:02 39.99419 -76.86572 29943 ft 353 kts 266°
2026-05-09 00:02 39.98794 -76.92925 29943 ft 354 kts 265°
2026-05-09 00:03 39.98164 -76.99299 29953 ft 354 kts 265°
2026-05-09 00:03 39.97530 -77.05672 29955 ft 354 kts 265°
2026-05-09 00:04 39.96906 -77.11918 29942 ft 355 kts 265°
2026-05-09 00:04 39.96297 -77.17981 29946 ft 355 kts 265°
2026-05-09 00:05 39.95678 -77.24116 29954 ft 355 kts 265°
2026-05-09 00:05 39.95133 -77.30348 29954 ft 354 kts 270°
2026-05-09 00:06 39.95313 -77.36623 29944 ft 354 kts 274°
2026-05-09 00:06 39.95534 -77.42926 29948 ft 353 kts 273°
2026-05-09 00:07 39.95727 -77.49074 29950 ft 353 kts 273°
2026-05-09 00:07 39.95922 -77.55307 29955 ft 354 kts 273°
2026-05-09 00:08 39.96118 -77.61689 29947 ft 354 kts 273°
2026-05-09 00:08 39.96311 -77.68090 29954 ft 354 kts 273°
2026-05-09 00:09 39.96487 -77.74061 29956 ft 355 kts 272°
2026-05-09 00:09 39.96673 -77.80435 29956 ft 355 kts 272°
2026-05-09 00:10 39.96857 -77.86872 29967 ft 355 kts 272°
2026-05-09 00:10 39.97036 -77.93273 29948 ft 355 kts 272°
2026-05-09 00:11 39.97210 -77.99641 29967 ft 355 kts 272°
2026-05-09 00:11 39.97388 -78.06064 29966 ft 355 kts 272°
2026-05-09 00:12 39.97562 -78.12468 29950 ft 355 kts 272°
2026-05-09 00:12 39.97732 -78.18916 29953 ft 355 kts 272°
2026-05-09 00:13 39.97899 -78.25324 29956 ft 355 kts 272°
2026-05-09 00:13 39.98061 -78.31698 29946 ft 355 kts 272°
2026-05-09 00:14 39.98215 -78.37895 29948 ft 354 kts 272°
2026-05-09 00:14 39.98370 -78.44314 29944 ft 355 kts 272°
2026-05-09 00:15 39.98523 -78.50753 29951 ft 354 kts 272°
2026-05-09 00:15 39.98671 -78.57105 29942 ft 354 kts 272°
2026-05-09 00:16 39.98793 -78.62413 29949 ft 353 kts 272°
2026-05-09 00:16 39.98957 -78.69806 29930 ft 353 kts 272°
2026-05-09 00:17 39.99071 -78.75127 29952 ft 353 kts 272°
2026-05-09 00:17 39.99204 -78.81449 29947 ft 354 kts 272°
2026-05-09 00:18 39.99333 -78.87796 29964 ft 356 kts 272°
2026-05-09 00:18 39.99462 -78.94192 29958 ft 357 kts 272°
2026-05-09 00:19 39.99588 -79.00691 29967 ft 358 kts 272°
2026-05-09 00:19 39.99710 -79.07156 29960 ft 359 kts 271°
2026-05-09 00:20 39.99829 -79.13637 29960 ft 359 kts 271°
2026-05-09 00:20 39.99944 -79.20097 29958 ft 359 kts 271°
2026-05-09 00:21 40.00054 -79.26476 29952 ft 358 kts 271°
2026-05-09 00:21 40.00161 -79.32873 29943 ft 357 kts 271°
2026-05-09 00:22 40.00265 -79.39220 29957 ft 357 kts 271°
2026-05-09 00:22 40.00364 -79.45596 29948 ft 357 kts 271°
2026-05-09 00:23 40.00460 -79.51895 29937 ft 356 kts 271°
2026-05-09 00:23 40.00552 -79.58210 29919 ft 357 kts 271°
2026-05-09 00:24 40.00645 -79.64640 29932 ft 356 kts 271°
2026-05-09 00:24 40.00732 -79.70911 29954 ft 355 kts 271°
2026-05-09 00:25 40.00816 -79.77302 29946 ft 356 kts 271°
2026-05-09 00:25 40.00897 -79.83684 29945 ft 356 kts 271°
2026-05-09 00:26 40.00975 -79.90106 29941 ft 357 kts 271°
2026-05-09 00:26 40.01049 -79.96515 29934 ft 357 kts 271°
2026-05-09 00:27 40.01120 -80.02952 29933 ft 356 kts 271°
2026-05-09 00:27 40.01187 -80.09388 29938 ft 357 kts 271°
2026-05-09 00:28 40.01247 -80.15440 29940 ft 357 kts 271°
2026-05-09 00:28 40.01307 -80.21833 29941 ft 357 kts 270°
2026-05-09 00:29 40.01364 -80.28280 29941 ft 357 kts 270°
2026-05-09 00:29 40.01418 -80.34710 29936 ft 357 kts 270°
2026-05-09 00:30 40.01466 -80.41027 29942 ft 356 kts 270°
2026-05-09 00:30 40.01513 -80.47502 29935 ft 356 kts 270°
2026-05-09 00:31 40.01555 -80.53858 29943 ft 356 kts 270°
2026-05-09 00:31 40.01594 -80.60228 29931 ft 356 kts 270°
2026-05-09 00:32 40.01629 -80.66617 29915 ft 356 kts 270°
2026-05-09 00:32 40.01661 -80.73047 29924 ft 356 kts 270°
2026-05-09 00:33 40.01691 -80.79446 29925 ft 356 kts 270°
2026-05-09 00:33 40.01672 -80.85748 29923 ft 356 kts 269°
2026-05-09 00:34 40.01576 -80.92040 29924 ft 355 kts 269°
2026-05-09 00:34 40.01476 -80.98473 29929 ft 356 kts 269°
2026-05-09 00:35 40.01382 -81.04860 29921 ft 356 kts 269°
2026-05-09 00:35 40.01288 -81.11050 29924 ft 356 kts 269°
2026-05-09 00:36 40.01190 -81.17490 29919 ft 357 kts 269°
2026-05-09 00:36 40.01089 -81.23759 29925 ft 357 kts 269°
2026-05-09 00:37 40.00972 -81.29995 29928 ft 358 kts 269°
2026-05-09 00:37 40.00847 -81.36323 29927 ft 358 kts 270°
2026-05-09 00:38 40.00716 -81.42755 29925 ft 359 kts 269°
2026-05-09 00:38 40.00586 -81.49192 29922 ft 359 kts 269°
2026-05-09 00:39 40.00452 -81.55630 29917 ft 359 kts 269°
2026-05-09 00:39 40.00321 -81.62095 29919 ft 359 kts 269°
2026-05-09 00:40 40.00190 -81.68486 29911 ft 360 kts 269°
2026-05-09 00:40 40.00053 -81.75008 29919 ft 360 kts 269°
2026-05-09 00:41 39.99838 -81.84814 29916 ft 361 kts 269°
2026-05-09 00:41 39.99692 -81.91298 29918 ft 361 kts 269°
2026-05-09 00:42 39.99544 -81.97709 29916 ft 361 kts 269°
2026-05-09 00:42 39.99394 -82.04051 29914 ft 360 kts 269°
2026-05-09 00:43 39.99236 -82.10574 29904 ft 360 kts 269°
2026-05-09 00:43 39.99075 -82.17063 29922 ft 360 kts 269°
2026-05-09 00:44 39.98930 -82.22841 29898 ft 359 kts 269°
2026-05-09 00:44 39.98762 -82.29331 29897 ft 359 kts 269°
2026-05-09 00:45 39.98591 -82.35787 29898 ft 359 kts 269°
2026-05-09 00:45 39.98417 -82.42262 29891 ft 360 kts 268°
2026-05-09 00:46 39.98238 -82.48770 29902 ft 360 kts 268°
2026-05-09 00:46 39.98060 -82.55117 29914 ft 361 kts 268°
2026-05-09 00:47 39.97874 -82.61615 29909 ft 362 kts 268°
2026-05-09 00:47 39.97685 -82.68116 29905 ft 362 kts 268°
2026-05-09 00:48 39.97491 -82.74633 29912 ft 363 kts 268°
2026-05-09 00:48 39.97298 -82.81017 29904 ft 364 kts 268°
2026-05-09 00:49 39.97100 -82.87429 29910 ft 364 kts 268°
2026-05-09 00:49 39.96897 -82.93924 29908 ft 364 kts 268°
2026-05-09 00:50 39.96766 -82.98067 29908 ft 365 kts 268°
2026-05-09 00:51 39.96647 -83.01763 29908 ft 365 kts 268°
2026-05-09 00:51 39.96493 -83.08077 29925 ft 364 kts 269°
2026-05-09 00:52 39.96384 -83.14412 29926 ft 364 kts 269°
2026-05-09 00:52 39.96243 -83.20982 29923 ft 364 kts 268°
2026-05-09 00:53 39.96031 -83.27389 29925 ft 364 kts 268°
2026-05-09 00:53 39.95799 -83.33939 29922 ft 364 kts 268°
2026-05-09 00:54 39.95569 -83.40514 29919 ft 364 kts 268°
2026-05-09 00:54 39.95339 -83.47064 29926 ft 364 kts 268°
2026-05-09 00:55 39.95106 -83.53646 29931 ft 365 kts 268°
2026-05-09 00:55 39.94870 -83.60236 29925 ft 365 kts 268°
2026-05-09 00:56 39.94631 -83.66787 29920 ft 365 kts 268°
2026-05-09 00:56 39.94389 -83.73320 29908 ft 365 kts 268°
2026-05-09 00:57 39.94141 -83.79922 29905 ft 365 kts 268°
2026-05-09 00:57 39.93890 -83.86510 29907 ft 365 kts 268°
2026-05-09 00:58 39.93638 -83.93018 29912 ft 364 kts 268°
2026-05-09 00:58 39.93379 -83.99600 29900 ft 364 kts 268°
2026-05-09 00:59 39.93120 -84.06121 29900 ft 364 kts 268°
2026-05-09 00:59 39.92854 -84.12685 29919 ft 364 kts 268°
2026-05-09 01:00 39.92586 -84.19261 29910 ft 363 kts 268°
2026-05-09 01:00 39.92314 -84.25820 29920 ft 363 kts 267°
2026-05-09 01:01 39.92038 -84.32371 29917 ft 363 kts 267°
2026-05-09 01:01 39.91760 -84.38888 29907 ft 363 kts 267°
2026-05-09 01:02 39.91483 -84.45323 29906 ft 363 kts 267°
2026-05-09 01:02 39.91198 -84.51845 29905 ft 363 kts 267°
2026-05-09 01:03 39.90914 -84.58315 29907 ft 363 kts 267°
2026-05-09 01:03 39.90620 -84.64875 29880 ft 363 kts 267°
2026-05-09 01:04 39.90319 -84.71421 29912 ft 362 kts 266°
2026-05-09 01:04 39.90064 -84.76875 29921 ft 363 kts 266°
2026-05-09 01:05 39.89756 -84.83433 29924 ft 363 kts 266°
2026-05-09 01:06 39.89290 -84.93217 29917 ft 364 kts 266°
2026-05-09 01:06 39.88976 -84.99713 29914 ft 364 kts 266°
2026-05-09 01:07 39.88661 -85.06160 29917 ft 364 kts 266°
2026-05-09 01:07 39.88333 -85.12770 29906 ft 365 kts 266°
2026-05-09 01:08 39.88004 -85.19347 29899 ft 365 kts 266°
2026-05-09 01:08 39.87671 -85.25938 29899 ft 365 kts 266°
2026-05-09 01:09 39.87334 -85.32519 29905 ft 365 kts 266°
2026-05-09 01:09 39.86994 -85.39092 29906 ft 365 kts 266°
2026-05-09 01:10 39.86654 -85.45603 29897 ft 365 kts 265°
2026-05-09 01:10 39.86306 -85.52176 29909 ft 364 kts 265°
2026-05-09 01:11 39.85956 -85.58727 29907 ft 365 kts 265°
2026-05-09 01:11 39.85600 -85.65326 29893 ft 365 kts 265°
2026-05-09 01:12 39.85301 -85.70804 29885 ft 365 kts 265°
2026-05-09 01:13 39.84673 -85.82167 29891 ft 366 kts 265°
2026-05-09 01:13 39.84307 -85.88712 29888 ft 365 kts 265°
2026-05-09 01:14 39.83943 -85.95133 29892 ft 365 kts 265°
2026-05-09 01:14 39.83566 -86.01736 29888 ft 366 kts 265°
2026-05-09 01:15 39.83191 -86.08227 29897 ft 365 kts 265°
2026-05-09 01:15 39.82811 -86.14747 30086 ft 369 kts 265°
2026-05-09 01:15 39.82620 -86.18011 30496 ft 365 kts 265°
2026-05-09 01:16 39.82433 -86.21181 30968 ft 359 kts 265°
2026-05-09 01:16 39.82243 -86.24396 31485 ft 353 kts 265°
2026-05-09 01:16 39.82058 -86.27509 31867 ft 350 kts 265°
2026-05-09 01:17 39.81511 -86.36904 31895 ft 351 kts 267°
2026-05-09 01:17 39.81594 -86.43254 31911 ft 355 kts 270°
2026-05-09 01:18 39.81735 -86.49143 31911 ft 363 kts 270°
2026-05-09 01:18 39.81887 -86.55760 31900 ft 367 kts 270°
2026-05-09 01:19 39.82004 -86.61491 31906 ft 367 kts 269°
2026-05-09 01:20 39.82249 -86.73953 31900 ft 367 kts 269°
2026-05-09 01:20 39.82372 -86.80549 31883 ft 367 kts 269°
2026-05-09 01:21 39.82483 -86.86738 31881 ft 366 kts 269°
2026-05-09 01:21 39.82596 -86.93208 31882 ft 365 kts 269°
2026-05-09 01:22 39.82704 -86.99691 31881 ft 364 kts 269°
2026-05-09 01:22 39.82809 -87.06149 31881 ft 364 kts 269°
2026-05-09 01:23 39.82911 -87.12633 31887 ft 364 kts 269°
2026-05-09 01:23 39.83008 -87.19119 31896 ft 364 kts 269°
2026-05-09 01:24 39.83102 -87.25597 31888 ft 364 kts 269°
2026-05-09 01:24 39.83194 -87.32126 31887 ft 364 kts 269°
2026-05-09 01:25 39.83281 -87.38666 31882 ft 364 kts 269°
2026-05-09 01:25 39.83366 -87.45256 31884 ft 364 kts 269°
2026-05-09 01:26 39.83447 -87.51844 31884 ft 365 kts 269°
2026-05-09 01:26 39.83524 -87.58373 31881 ft 365 kts 269°
2026-05-09 01:27 39.83595 -87.64776 31881 ft 365 kts 269°
2026-05-09 01:27 39.83665 -87.71310 31893 ft 365 kts 268°
2026-05-09 01:28 39.83730 -87.77773 31880 ft 366 kts 268°
2026-05-09 01:28 39.83791 -87.84307 31881 ft 366 kts 268°
2026-05-09 01:29 39.83848 -87.90628 31877 ft 367 kts 268°
2026-05-09 01:29 39.83888 -87.95581 31879 ft 367 kts 268°
2026-05-09 01:30 39.83941 -88.02128 31877 ft 367 kts 268°
2026-05-09 01:30 39.83990 -88.08607 31881 ft 367 kts 268°
2026-05-09 01:31 39.84035 -88.14991 31867 ft 367 kts 268°
2026-05-09 01:31 39.84077 -88.21586 31864 ft 367 kts 268°
2026-05-09 01:32 39.84111 -88.27579 31866 ft 367 kts 268°
2026-05-09 01:32 39.84139 -88.34072 31864 ft 368 kts 268°
2026-05-09 01:33 39.84163 -88.40104 31864 ft 368 kts 268°
2026-05-09 01:33 39.84186 -88.46373 31868 ft 368 kts 268°
2026-05-09 01:34 39.84204 -88.52492 31865 ft 368 kts 268°
2026-05-09 01:34 39.84220 -88.58531 31871 ft 368 kts 267°
2026-05-09 01:35 39.84233 -88.64251 31870 ft 368 kts 267°
2026-05-09 01:35 39.84245 -88.70558 31870 ft 368 kts 267°
2026-05-09 01:36 39.84254 -88.77059 31870 ft 368 kts 267°
2026-05-09 01:36 39.84259 -88.83647 31867 ft 368 kts 267°
2026-05-09 01:37 39.84261 -88.90261 31874 ft 368 kts 267°
2026-05-09 01:37 39.84259 -88.96854 31871 ft 368 kts 267°
2026-05-09 01:38 39.84253 -89.03422 31869 ft 368 kts 267°
2026-05-09 01:38 39.84243 -89.10071 31866 ft 368 kts 267°
2026-05-09 01:39 39.84231 -89.16119 31860 ft 368 kts 267°
2026-05-09 01:39 39.84214 -89.22581 31866 ft 367 kts 267°
2026-05-09 01:40 39.84195 -89.28703 31863 ft 367 kts 266°
2026-05-09 01:40 39.84171 -89.35343 31862 ft 367 kts 266°
2026-05-09 01:41 39.84144 -89.41911 31861 ft 367 kts 266°
2026-05-09 01:41 39.84113 -89.48376 31859 ft 367 kts 266°
2026-05-09 01:42 39.84079 -89.54864 31863 ft 367 kts 266°
2026-05-09 01:42 39.84041 -89.61421 31870 ft 367 kts 266°
2026-05-09 01:43 39.83980 -89.67982 31869 ft 366 kts 264°
2026-05-09 01:43 39.83455 -89.74460 31867 ft 365 kts 261°
2026-05-09 01:44 39.82867 -89.80879 31876 ft 365 kts 261°
2026-05-09 01:44 39.82312 -89.87001 31865 ft 365 kts 261°
2026-05-09 01:45 39.81808 -89.92589 31869 ft 365 kts 261°
2026-05-09 01:45 39.81256 -89.98727 31869 ft 365 kts 261°
2026-05-09 01:46 39.80722 -90.04644 31865 ft 365 kts 261°
2026-05-09 01:46 39.80175 -90.10661 31864 ft 365 kts 261°
2026-05-09 01:47 39.79628 -90.16656 31867 ft 366 kts 261°
2026-05-09 01:47 39.79049 -90.22962 31874 ft 366 kts 261°
2026-05-09 01:48 39.78459 -90.29349 31870 ft 367 kts 261°
2026-05-09 01:48 39.77848 -90.35920 31872 ft 368 kts 261°
2026-05-09 01:49 39.77268 -90.42128 31867 ft 368 kts 261°
2026-05-09 01:49 39.76653 -90.48667 31867 ft 369 kts 261°
2026-05-09 01:50 39.76032 -90.55219 31866 ft 369 kts 261°
2026-05-09 01:50 39.75424 -90.61608 31865 ft 369 kts 261°
2026-05-09 01:51 39.74859 -90.67508 31869 ft 369 kts 261°
2026-05-09 01:51 39.74243 -90.73902 31868 ft 368 kts 261°
2026-05-09 01:52 39.73693 -90.79587 31877 ft 368 kts 260°
2026-05-09 01:52 39.73068 -90.86000 31868 ft 368 kts 260°
2026-05-09 01:53 39.72490 -90.91897 31866 ft 368 kts 260°
2026-05-09 01:53 39.72181 -90.95043 32198 ft 367 kts 260°
2026-05-09 01:53 39.71869 -90.98216 32223 ft 367 kts 260°
2026-05-09 01:54 39.71245 -91.04528 32220 ft 367 kts 260°
2026-05-09 01:54 39.70598 -91.11006 32219 ft 367 kts 260°
2026-05-09 01:55 39.69948 -91.17439 32217 ft 367 kts 259°
2026-05-09 01:55 39.69282 -91.23990 32173 ft 367 kts 259°
2026-05-09 01:56 39.68975 -91.27003 31860 ft 367 kts 259°
2026-05-09 01:56 39.68645 -91.30237 31861 ft 367 kts 259°
2026-05-09 01:56 39.67977 -91.36759 31861 ft 367 kts 259°
2026-05-09 01:57 39.67318 -91.43150 31864 ft 368 kts 259°
2026-05-09 01:57 39.66654 -91.49576 31864 ft 368 kts 259°
2026-05-09 01:58 39.65988 -91.56025 31853 ft 369 kts 259°
2026-05-09 01:58 39.65308 -91.62574 31862 ft 370 kts 259°
2026-05-09 01:59 39.64737 -91.68039 31858 ft 371 kts 259°
2026-05-09 01:59 39.63930 -91.75733 31857 ft 372 kts 259°
2026-05-09 02:00 39.63342 -91.81270 31852 ft 373 kts 259°
2026-05-09 02:00 39.62637 -91.87926 31853 ft 374 kts 259°
2026-05-09 02:01 39.61934 -91.94528 31849 ft 375 kts 260°
2026-05-09 02:01 39.61228 -92.01131 31858 ft 377 kts 260°
2026-05-09 02:02 39.60525 -92.07653 31858 ft 378 kts 260°
2026-05-09 02:02 39.59844 -92.13936 31867 ft 380 kts 260°
2026-05-09 02:03 39.59193 -92.19912 31864 ft 381 kts 260°
2026-05-09 02:03 39.58546 -92.25819 31867 ft 382 kts 260°
2026-05-09 02:04 39.57962 -92.31114 31848 ft 383 kts 261°
2026-05-09 02:04 39.57327 -92.36864 31871 ft 385 kts 261°
2026-05-09 02:05 39.56726 -92.42280 31875 ft 387 kts 261°
2026-05-09 02:05 39.56089 -92.47999 31878 ft 388 kts 261°
2026-05-09 02:06 39.55462 -92.53606 31874 ft 390 kts 261°
2026-05-09 02:07 39.54545 -92.61778 31858 ft 391 kts 260°
2026-05-09 02:07 39.53775 -92.68566 31844 ft 391 kts 262°
2026-05-09 02:08 39.53027 -92.75132 31860 ft 392 kts 262°
2026-05-09 02:08 39.52362 -92.80943 31866 ft 392 kts 262°
2026-05-09 02:09 39.51597 -92.87607 31866 ft 393 kts 262°
2026-05-09 02:09 39.50789 -92.94595 31865 ft 395 kts 262°
2026-05-09 02:10 39.50008 -93.01327 31867 ft 395 kts 262°
2026-05-09 02:10 39.49194 -93.08290 31850 ft 396 kts 263°
2026-05-09 02:11 39.48384 -93.15200 31872 ft 397 kts 263°
2026-05-09 02:11 39.47552 -93.22258 31867 ft 399 kts 263°
2026-05-09 02:12 39.46716 -93.29307 31864 ft 400 kts 263°
2026-05-09 02:12 39.45862 -93.36417 31863 ft 401 kts 263°
2026-05-09 02:13 39.45047 -93.43158 31855 ft 401 kts 263°
2026-05-09 02:13 39.44204 -93.50103 31860 ft 401 kts 263°
2026-05-09 02:14 39.43344 -93.57167 31859 ft 401 kts 263°
2026-05-09 02:14 39.42518 -93.63910 31858 ft 401 kts 263°
2026-05-09 02:15 39.41688 -93.70648 31859 ft 401 kts 263°
2026-05-09 02:15 39.40831 -93.77581 31866 ft 400 kts 263°
2026-05-09 02:16 39.40015 -93.84146 31846 ft 400 kts 265°
2026-05-09 02:16 39.39175 -93.90876 31853 ft 401 kts 265°
2026-05-09 02:17 39.38310 -93.97767 31858 ft 402 kts 265°
2026-05-09 02:17 39.37413 -94.04886 31870 ft 403 kts 265°
2026-05-09 02:18 39.36523 -94.11903 31872 ft 405 kts 265°
2026-05-09 02:18 39.35674 -94.18574 31884 ft 406 kts 264°
2026-05-09 02:19 39.34766 -94.25656 31878 ft 407 kts 267°
2026-05-09 02:19 39.33850 -94.32789 31879 ft 409 kts 267°
2026-05-09 02:20 39.32983 -94.39499 31883 ft 410 kts 266°
2026-05-09 02:20 39.32057 -94.46621 31871 ft 412 kts 266°
2026-05-09 02:21 39.31122 -94.53787 31868 ft 412 kts 266°
2026-05-09 02:21 39.30178 -94.60980 31840 ft 412 kts 268°
2026-05-09 02:22 39.29229 -94.68189 31855 ft 412 kts 269°
2026-05-09 02:22 39.28279 -94.75435 31869 ft 412 kts 269°
2026-05-09 02:23 39.27525 -94.82004 31863 ft 411 kts 270°
2026-05-09 02:23 39.26793 -94.88671 31849 ft 411 kts 270°
2026-05-09 02:24 39.25992 -94.95870 31814 ft 411 kts 270°
2026-05-09 02:24 39.25175 -95.03074 31847 ft 410 kts 271°
2026-05-09 02:25 39.24440 -95.09506 31852 ft 410 kts 271°
2026-05-09 02:25 39.23705 -95.15854 31830 ft 409 kts 270°
2026-05-09 02:26 39.22940 -95.22469 31856 ft 408 kts 270°
2026-05-09 02:26 39.22122 -95.29512 31863 ft 408 kts 270°
2026-05-09 02:27 39.21358 -95.36051 31842 ft 408 kts 271°
2026-05-09 02:27 39.20554 -95.42885 31853 ft 407 kts 271°
2026-05-09 02:28 39.19723 -95.49921 31854 ft 407 kts 271°
2026-05-09 02:28 39.18877 -95.57043 31856 ft 406 kts 271°
2026-05-09 02:29 39.18036 -95.64090 31859 ft 406 kts 270°
2026-05-09 02:29 39.17192 -95.71118 31805 ft 406 kts 270°
2026-05-09 02:30 39.16401 -95.77670 31847 ft 404 kts 270°
2026-05-09 02:30 39.15598 -95.84285 31848 ft 404 kts 270°
2026-05-09 02:31 39.14792 -95.90900 31854 ft 403 kts 270°
2026-05-09 02:31 39.13931 -95.97938 31850 ft 403 kts 270°
2026-05-09 02:32 39.13181 -96.04031 31847 ft 403 kts 270°
2026-05-09 02:32 39.12368 -96.10623 31806 ft 403 kts 269°
2026-05-09 02:33 39.11546 -96.17231 31835 ft 402 kts 269°
2026-05-09 02:33 39.10725 -96.23801 31854 ft 402 kts 269°
2026-05-09 02:34 39.09842 -96.30850 31844 ft 403 kts 269°
2026-05-09 02:34 39.08947 -96.37947 31847 ft 403 kts 269°
2026-05-09 02:35 39.08125 -96.44441 31848 ft 404 kts 269°
2026-05-09 02:35 39.07217 -96.51580 31846 ft 403 kts 268°
2026-05-09 02:36 39.06346 -96.58382 31851 ft 404 kts 268°
2026-05-09 02:36 39.05444 -96.65401 31847 ft 404 kts 268°
2026-05-09 02:37 39.04524 -96.72524 31857 ft 404 kts 268°
2026-05-09 02:37 39.03645 -96.79301 31856 ft 405 kts 268°
2026-05-09 02:38 39.02828 -96.85584 31806 ft 405 kts 267°
2026-05-09 02:38 39.01904 -96.92626 31838 ft 405 kts 267°
2026-05-09 02:39 39.01078 -96.98857 31845 ft 405 kts 267°
2026-05-09 02:39 39.00135 -97.05927 31841 ft 405 kts 267°
2026-05-09 02:40 38.99223 -97.12741 31840 ft 405 kts 267°
2026-05-09 02:40 38.98284 -97.19732 31840 ft 405 kts 267°
2026-05-09 02:41 38.97403 -97.26259 31834 ft 405 kts 267°
2026-05-09 02:41 38.96485 -97.33027 31843 ft 405 kts 267°
2026-05-09 02:42 38.95528 -97.40059 31848 ft 405 kts 267°
2026-05-09 02:42 38.94765 -97.45641 31842 ft 405 kts 267°
2026-05-09 02:43 38.93721 -97.53246 31864 ft 405 kts 267°
2026-05-09 02:43 38.92933 -97.58962 31844 ft 405 kts 266°
2026-05-09 02:44 38.92032 -97.65668 31859 ft 403 kts 268°
2026-05-09 02:44 38.91188 -97.72635 31869 ft 402 kts 268°
2026-05-09 02:45 38.90396 -97.79261 31862 ft 403 kts 268°
2026-05-09 02:45 38.89632 -97.85557 31859 ft 403 kts 268°
2026-05-09 02:46 38.88961 -97.91028 31859 ft 403 kts 268°
2026-05-09 02:46 38.88262 -97.96687 31861 ft 403 kts 268°
2026-05-09 02:47 38.87500 -98.02824 31850 ft 403 kts 268°
2026-05-09 02:47 38.86807 -98.08379 31863 ft 403 kts 268°
2026-05-09 02:48 38.86133 -98.13756 31852 ft 403 kts 267°
2026-05-09 02:48 38.85490 -98.18870 31854 ft 404 kts 267°
2026-05-09 02:49 38.84721 -98.24959 31852 ft 404 kts 267°
2026-05-09 02:49 38.83919 -98.31297 31857 ft 404 kts 267°
2026-05-09 02:50 38.83120 -98.37575 31841 ft 404 kts 268°
2026-05-09 02:50 38.82304 -98.43961 31858 ft 404 kts 267°
2026-05-09 02:51 38.81409 -98.50932 31871 ft 404 kts 267°
2026-05-09 02:51 38.80502 -98.57961 31862 ft 405 kts 267°
2026-05-09 02:52 38.79648 -98.64541 31877 ft 405 kts 267°
2026-05-09 02:52 38.78853 -98.70640 31886 ft 406 kts 267°
2026-05-09 02:53 38.78047 -98.76799 31873 ft 406 kts 267°
2026-05-09 02:53 38.77217 -98.83114 31887 ft 407 kts 267°
2026-05-09 02:54 38.76423 -98.89129 31883 ft 408 kts 267°
2026-05-09 02:54 38.75562 -98.95630 31887 ft 408 kts 267°
2026-05-09 02:55 38.74807 -99.01304 31872 ft 409 kts 267°
2026-05-09 02:55 38.74074 -99.06774 31892 ft 409 kts 267°
2026-05-09 02:56 38.73197 -99.13315 31896 ft 408 kts 266°
2026-05-09 02:56 38.72476 -99.18663 31902 ft 408 kts 266°
2026-05-09 02:57 38.71822 -99.23472 31903 ft 408 kts 266°
2026-05-09 02:57 38.71200 -99.28045 31909 ft 408 kts 266°
2026-05-09 02:58 38.70650 -99.32052 31917 ft 408 kts 266°
2026-05-09 02:58 38.70027 -99.36131 31845 ft 411 kts 266°
2026-05-09 02:59 38.69391 -99.40673 31911 ft 408 kts 267°
2026-05-09 02:59 38.68761 -99.45290 31896 ft 408 kts 267°
2026-05-09 03:00 38.67841 -99.52333 31883 ft 408 kts 266°
2026-05-09 03:00 38.66896 -99.59399 31895 ft 408 kts 266°
2026-05-09 03:01 38.66012 -99.65846 31903 ft 409 kts 266°
2026-05-09 03:01 38.65516 -99.69795 31893 ft 408 kts 265°
2026-05-09 03:02 38.64510 -99.76766 31899 ft 409 kts 266°
2026-05-09 03:02 38.63637 -99.82886 31903 ft 409 kts 266°
2026-05-09 03:03 38.62833 -99.88551 31886 ft 409 kts 266°
2026-05-09 03:03 38.62135 -99.93467 31901 ft 409 kts 266°
2026-05-09 03:04 38.61570 -99.97318 31909 ft 411 kts 264°
2026-05-09 03:04 38.60847 -100.00844 31850 ft 411 kts 267°
2026-05-09 03:04 38.60825 -100.02806 31678 ft 399 kts 284°
2026-05-09 03:05 38.61084 -100.04657 32176 ft 381 kts 284°
2026-05-09 03:05 38.61262 -100.06566 32745 ft 374 kts 278°
2026-05-09 03:05 38.61252 -100.08516 32346 ft 391 kts 269°
2026-05-09 03:05 38.61024 -100.10201 31682 ft 417 kts 261°
2026-05-09 03:06 38.60577 -100.11919 31161 ft 439 kts 252°
2026-05-09 03:06 38.59888 -100.13706 30927 ft 454 kts 245°
2026-05-09 03:06 38.58553 -100.16211 31146 ft 453 kts 241°
2026-05-09 03:06 38.57120 -100.19594 31299 ft 418 kts 261°
2026-05-09 03:07 38.56711 -100.22499 31502 ft 400 kts 271°
2026-05-09 03:07 38.56604 -100.24715 31679 ft 396 kts 272°
2026-05-09 03:07 38.56514 -100.26844 31788 ft 397 kts 272°
2026-05-09 03:08 38.56272 -100.30881 31865 ft 403 kts 270°
2026-05-09 03:08 38.55889 -100.34442 31961 ft 408 kts 265°
2026-05-09 03:09 38.55481 -100.37734 32020 ft 406 kts 271°
2026-05-09 03:09 38.55480 -100.41261 31915 ft 408 kts 274°
2026-05-09 03:09 38.55329 -100.43001 31744 ft 419 kts 264°
2026-05-09 03:10 38.55022 -100.44721 31603 ft 423 kts 262°
2026-05-09 03:10 38.54283 -100.48335 31932 ft 416 kts 258°
2026-05-09 03:10 38.53709 -100.50339 32288 ft 411 kts 256°
2026-05-09 03:11 38.53289 -100.51872 32037 ft 413 kts 260°
2026-05-09 03:11 38.53017 -100.53315 31215 ft 418 kts 267°
2026-05-09 03:11 38.52921 -100.55009 29348 ft 427 kts 277°
2026-05-09 03:11 38.52994 -100.57259 26703 ft 494 kts 273°
2026-05-09 03:12 38.52849 -100.59717 25488 ft 522 kts 265°
2026-05-09 03:12 38.52370 -100.62923 25519 ft 491 kts 262°
2026-05-09 03:12 38.51743 -100.66653 25711 ft 461 kts 262°
2026-05-09 03:12 38.51208 -100.69764 25876 ft 440 kts 262°
2026-05-09 03:13 38.50178 -100.75954 26209 ft 401 kts 263°
2026-05-09 03:13 38.49731 -100.78750 26376 ft 384 kts 264°
2026-05-09 03:13 38.49282 -100.81646 26578 ft 381 kts 264°
2026-05-09 03:14 38.48781 -100.84971 26842 ft 384 kts 264°
2026-05-09 03:14 38.48326 -100.88013 27061 ft 387 kts 264°
2026-05-09 03:14 38.47869 -100.91076 27297 ft 389 kts 264°
2026-05-09 03:14 38.47432 -100.93992 27519 ft 390 kts 264°
2026-05-09 03:15 38.46959 -100.97146 27756 ft 392 kts 264°
2026-05-09 03:15 38.46493 -101.00232 27993 ft 394 kts 264°
2026-05-09 03:15 38.46060 -101.03092 28205 ft 395 kts 264°
2026-05-09 03:15 38.45624 -101.05967 28414 ft 396 kts 264°
2026-05-09 03:16 38.45206 -101.08717 28621 ft 397 kts 264°
2026-05-09 03:16 38.44770 -101.11573 28834 ft 398 kts 264°
2026-05-09 03:16 38.44392 -101.14050 29025 ft 399 kts 264°
2026-05-09 03:16 38.43947 -101.16958 29250 ft 399 kts 264°
2026-05-09 03:17 38.43542 -101.19605 29456 ft 400 kts 264°
2026-05-09 03:17 38.43105 -101.22450 29672 ft 401 kts 264°
2026-05-09 03:18 38.42083 -101.28884 30153 ft 401 kts 264°
2026-05-09 03:18 38.41667 -101.31611 30329 ft 400 kts 265°
2026-05-09 03:18 38.41153 -101.35022 30565 ft 401 kts 264°
2026-05-09 03:19 38.40628 -101.38470 30800 ft 401 kts 264°
2026-05-09 03:19 38.40160 -101.41526 31013 ft 401 kts 264°
2026-05-09 03:19 38.39819 -101.43730 31161 ft 401 kts 264°
2026-05-09 03:19 38.39320 -101.46951 31391 ft 401 kts 264°
2026-05-09 03:20 38.38786 -101.50378 31614 ft 402 kts 264°
2026-05-09 03:20 38.38256 -101.53782 31761 ft 404 kts 264°
2026-05-09 03:20 38.37179 -101.60676 31886 ft 412 kts 264°
2026-05-09 03:21 38.36173 -101.67079 31918 ft 419 kts 264°
2026-05-09 03:21 38.35356 -101.72246 31908 ft 422 kts 264°
2026-05-09 03:22 38.34532 -101.77456 31924 ft 424 kts 264°
2026-05-09 03:22 38.33530 -101.83755 31906 ft 418 kts 264°
2026-05-09 03:23 38.32387 -101.90918 31921 ft 414 kts 264°
2026-05-09 03:23 38.31246 -101.98073 31922 ft 416 kts 264°
2026-05-09 03:24 38.30095 -102.05258 31902 ft 417 kts 264°
2026-05-09 03:24 38.28945 -102.12403 31915 ft 418 kts 264°
2026-05-09 03:25 38.27791 -102.19541 31911 ft 419 kts 264°
2026-05-09 03:25 38.26610 -102.26815 31914 ft 419 kts 264°
2026-05-09 03:26 38.25640 -102.32763 31921 ft 420 kts 264°
2026-05-09 03:26 38.24520 -102.39609 31932 ft 420 kts 264°
2026-05-09 03:27 38.23342 -102.46784 31938 ft 419 kts 263°
2026-05-09 03:27 38.22148 -102.54027 31960 ft 419 kts 263°
2026-05-09 03:28 38.20959 -102.61222 31967 ft 418 kts 263°
2026-05-09 03:28 38.19760 -102.68421 31985 ft 418 kts 262°
2026-05-09 03:29 38.18111 -102.75537 31992 ft 422 kts 257°
2026-05-09 03:29 38.16241 -102.82594 31977 ft 422 kts 257°
2026-05-09 03:30 38.14388 -102.89616 31963 ft 422 kts 257°
2026-05-09 03:30 38.12556 -102.96660 31950 ft 423 kts 257°
2026-05-09 03:31 38.10744 -103.03665 31931 ft 423 kts 257°
2026-05-09 03:31 38.08926 -103.10695 31906 ft 423 kts 257°
2026-05-09 03:32 38.07108 -103.17701 31938 ft 423 kts 257°
2026-05-09 03:32 38.05285 -103.24706 31964 ft 424 kts 257°
2026-05-09 03:33 38.03433 -103.31804 31990 ft 424 kts 257°
2026-05-09 03:33 38.01619 -103.38737 32010 ft 425 kts 257°
2026-05-09 03:34 37.99783 -103.45731 32020 ft 425 kts 256°
2026-05-09 03:34 37.97914 -103.52836 32003 ft 425 kts 256°
2026-05-09 03:35 37.96036 -103.59952 31891 ft 426 kts 256°
2026-05-09 03:35 37.94171 -103.66999 31891 ft 426 kts 256°
2026-05-09 03:36 37.92301 -103.74043 31894 ft 426 kts 256°
2026-05-09 03:36 37.90446 -103.81015 31888 ft 426 kts 256°
2026-05-09 03:37 37.88613 -103.87888 31874 ft 426 kts 256°
2026-05-09 03:37 37.86753 -103.94839 31886 ft 426 kts 256°
2026-05-09 03:38 37.84857 -104.01906 31896 ft 427 kts 256°
2026-05-09 03:38 37.82962 -104.08951 31890 ft 427 kts 256°
2026-05-09 03:39 37.81074 -104.15949 31893 ft 427 kts 256°
2026-05-09 03:39 37.79181 -104.22952 31882 ft 427 kts 255°
2026-05-09 03:40 37.77292 -104.29917 31878 ft 427 kts 255°
2026-05-09 03:40 37.75375 -104.36965 31896 ft 427 kts 255°
2026-05-09 03:41 37.73463 -104.43979 31902 ft 428 kts 255°
2026-05-09 03:41 37.71560 -104.50940 31917 ft 429 kts 255°
2026-05-09 03:42 37.69648 -104.57917 31912 ft 429 kts 255°
2026-05-09 03:42 37.67711 -104.64963 31924 ft 430 kts 255°
2026-05-09 03:43 37.65760 -104.72042 31925 ft 430 kts 255°
2026-05-09 03:43 37.63799 -104.79139 31932 ft 429 kts 255°
2026-05-09 03:44 37.61845 -104.86192 31923 ft 430 kts 255°
2026-05-09 03:44 37.59880 -104.93264 31919 ft 429 kts 255°
2026-05-09 03:45 37.57906 -105.00350 31932 ft 429 kts 255°
2026-05-09 03:45 37.55938 -105.07398 31943 ft 428 kts 255°
2026-05-09 03:46 37.54000 -105.14319 31956 ft 429 kts 255°
2026-05-09 03:46 37.52025 -105.21355 31950 ft 430 kts 255°
2026-05-09 03:47 37.50041 -105.28401 31959 ft 430 kts 254°
2026-05-09 03:47 37.48067 -105.35398 31951 ft 431 kts 254°
2026-05-09 03:48 37.46095 -105.42364 31959 ft 431 kts 254°
2026-05-09 03:48 37.44114 -105.49346 31980 ft 431 kts 254°
2026-05-09 03:49 37.42117 -105.56368 32018 ft 431 kts 254°
2026-05-09 03:49 37.40136 -105.63314 32060 ft 431 kts 254°
2026-05-09 03:50 37.38141 -105.70293 32090 ft 430 kts 254°
2026-05-09 03:50 37.36162 -105.77202 32120 ft 430 kts 254°
2026-05-09 03:51 37.34166 -105.84249 32129 ft 428 kts 255°
2026-05-09 03:51 37.32371 -105.91332 32105 ft 427 kts 256°
2026-05-09 03:52 37.31492 -105.94897 31909 ft 427 kts 256°
2026-05-09 03:52 37.30612 -105.98451 31916 ft 427 kts 256°
2026-05-09 03:52 37.28835 -106.05544 31918 ft 426 kts 256°
2026-05-09 03:53 37.27057 -106.12556 31930 ft 426 kts 256°
2026-05-09 03:53 37.25257 -106.19614 31931 ft 425 kts 256°
2026-05-09 03:54 37.23475 -106.26577 31958 ft 425 kts 256°
2026-05-09 03:54 37.21677 -106.33585 31951 ft 425 kts 256°
2026-05-09 03:55 37.19899 -106.40496 31978 ft 425 kts 256°
2026-05-09 03:55 37.18101 -106.47466 31971 ft 425 kts 256°
2026-05-09 03:56 37.16300 -106.54430 31981 ft 424 kts 256°
2026-05-09 03:56 37.14505 -106.61350 31987 ft 423 kts 256°
2026-05-09 03:57 37.12690 -106.68332 31972 ft 424 kts 255°
2026-05-09 03:57 37.10880 -106.75269 31963 ft 423 kts 255°
2026-05-09 03:58 37.09075 -106.82172 31956 ft 423 kts 255°
2026-05-09 03:58 37.07275 -106.89037 31967 ft 424 kts 255°
2026-05-09 03:59 37.05474 -106.95890 31932 ft 425 kts 255°
2026-05-09 03:59 37.03631 -107.02883 31928 ft 426 kts 255°
2026-05-09 04:00 37.01802 -107.09803 31910 ft 427 kts 255°
2026-05-09 04:00 36.99963 -107.16742 31976 ft 429 kts 255°
2026-05-09 04:01 36.99025 -107.20274 32289 ft 428 kts 255°
2026-05-09 04:01 36.98408 -107.22595 32567 ft 426 kts 255°
2026-05-09 04:01 36.97194 -107.27152 33106 ft 423 kts 255°
2026-05-09 04:01 36.96585 -107.29434 33357 ft 421 kts 255°
2026-05-09 04:02 36.95657 -107.32912 33688 ft 421 kts 255°
2026-05-09 04:02 36.94735 -107.36364 33902 ft 421 kts 255°
2026-05-09 04:02 36.92902 -107.43220 33903 ft 430 kts 255°
2026-05-09 04:03 36.91018 -107.50248 33931 ft 436 kts 255°
2026-05-09 04:03 36.89098 -107.57371 33945 ft 436 kts 255°
2026-05-09 04:04 36.87180 -107.64473 33944 ft 436 kts 255°
2026-05-09 04:04 36.85238 -107.71647 33933 ft 436 kts 255°
2026-05-09 04:05 36.83301 -107.78787 33912 ft 435 kts 255°
2026-05-09 04:05 36.81365 -107.85902 33917 ft 435 kts 255°
2026-05-09 04:06 36.79433 -107.92985 33960 ft 434 kts 255°
2026-05-09 04:06 36.77502 -108.00047 33996 ft 433 kts 255°
2026-05-09 04:07 36.75558 -108.07139 34032 ft 433 kts 255°
2026-05-09 04:07 36.73874 -108.14217 34058 ft 430 kts 260°
2026-05-09 04:08 36.72589 -108.21410 34056 ft 429 kts 261°
2026-05-09 04:08 36.71329 -108.28612 34059 ft 429 kts 261°
2026-05-09 04:09 36.70019 -108.35862 34039 ft 430 kts 261°
2026-05-09 04:09 36.68695 -108.43042 34000 ft 430 kts 260°
2026-05-09 04:10 36.67350 -108.50269 33957 ft 430 kts 260°
2026-05-09 04:10 36.66016 -108.57409 33911 ft 430 kts 260°
2026-05-09 04:11 36.64686 -108.64504 33870 ft 430 kts 260°
2026-05-09 04:11 36.63342 -108.71657 33845 ft 430 kts 260°
2026-05-09 04:12 36.61975 -108.78898 33834 ft 430 kts 260°
2026-05-09 04:12 36.60607 -108.86124 33847 ft 430 kts 260°
2026-05-09 04:13 36.59234 -108.93351 33847 ft 430 kts 259°
2026-05-09 04:13 36.57871 -109.00501 33849 ft 430 kts 259°
2026-05-09 04:14 36.56510 -109.07614 33851 ft 430 kts 259°
2026-05-09 04:14 36.55150 -109.14696 33844 ft 430 kts 259°
2026-05-09 04:15 36.53772 -109.21848 33853 ft 430 kts 259°
2026-05-09 04:15 36.52378 -109.29067 33842 ft 429 kts 259°
2026-05-09 04:16 36.50999 -109.36172 33843 ft 429 kts 259°
2026-05-09 04:16 36.49609 -109.43307 33839 ft 428 kts 259°
2026-05-09 04:17 36.48224 -109.50398 33830 ft 428 kts 259°
2026-05-09 04:17 36.46822 -109.57552 33829 ft 428 kts 259°
2026-05-09 04:18 36.45412 -109.64723 33828 ft 428 kts 259°
2026-05-09 04:18 36.43993 -109.71915 33819 ft 429 kts 259°
2026-05-09 04:19 36.42573 -109.79085 33825 ft 429 kts 259°
2026-05-09 04:19 36.41179 -109.86102 33828 ft 428 kts 259°
2026-05-09 04:20 36.39794 -109.93054 33825 ft 429 kts 259°
2026-05-09 04:20 36.38401 -110.00021 33830 ft 429 kts 259°
2026-05-09 04:21 36.36995 -110.07029 33838 ft 428 kts 259°
2026-05-09 04:22 36.35056 -110.16657 33830 ft 428 kts 259°
2026-05-09 04:22 36.33717 -110.23285 33828 ft 427 kts 259°
2026-05-09 04:23 36.32298 -110.30288 33828 ft 427 kts 259°
2026-05-09 04:23 36.30863 -110.37330 33830 ft 426 kts 259°
2026-05-09 04:24 36.29428 -110.44288 33826 ft 426 kts 258°
2026-05-09 04:24 36.27998 -110.51185 33822 ft 425 kts 258°
2026-05-09 04:25 36.26568 -110.58076 33820 ft 424 kts 258°
2026-05-09 04:25 36.25112 -110.65069 33824 ft 424 kts 258°
2026-05-09 04:26 36.23660 -110.72029 33822 ft 424 kts 258°
2026-05-09 04:26 36.22208 -110.78968 33820 ft 424 kts 258°
2026-05-09 04:27 36.20761 -110.85860 33818 ft 424 kts 258°
2026-05-09 04:27 36.19304 -110.92801 33832 ft 424 kts 258°
2026-05-09 04:28 36.17853 -110.99730 33819 ft 424 kts 258°
2026-05-09 04:28 36.16405 -111.06627 33829 ft 424 kts 258°
2026-05-09 04:29 36.14925 -111.13650 33822 ft 425 kts 258°
2026-05-09 04:29 36.13440 -111.20679 33820 ft 425 kts 258°
2026-05-09 04:30 36.11995 -111.27726 33827 ft 424 kts 262°
2026-05-09 04:30 36.11281 -111.34876 33830 ft 423 kts 266°
2026-05-09 04:31 36.10716 -111.41895 33847 ft 423 kts 266°
2026-05-09 04:31 36.10101 -111.48995 33844 ft 424 kts 265°
2026-05-09 04:32 36.09449 -111.56134 33862 ft 424 kts 265°
2026-05-09 04:32 36.08785 -111.63290 33861 ft 424 kts 265°
2026-05-09 04:33 36.08127 -111.70358 33842 ft 425 kts 265°
2026-05-09 04:33 36.07464 -111.77435 33889 ft 425 kts 265°
2026-05-09 04:34 36.06174 -111.84554 33990 ft 428 kts 251°
2026-05-09 04:34 36.04037 -111.91151 34061 ft 429 kts 250°
2026-05-09 04:35 36.01910 -111.97631 34130 ft 430 kts 250°
2026-05-09 04:35 35.99766 -112.04252 34189 ft 430 kts 251°
2026-05-09 04:36 35.97612 -112.10951 34195 ft 430 kts 251°
2026-05-09 04:36 35.95447 -112.17686 34182 ft 430 kts 251°
2026-05-09 04:37 35.93265 -112.24459 34192 ft 430 kts 251°
2026-05-09 04:37 35.91088 -112.31198 34141 ft 430 kts 251°
2026-05-09 04:38 35.88877 -112.38023 34083 ft 430 kts 251°
2026-05-09 04:38 35.86681 -112.44790 34027 ft 430 kts 251°
2026-05-09 04:38 35.85579 -112.48179 33914 ft 430 kts 251°
2026-05-09 04:39 35.84483 -112.51546 33904 ft 430 kts 251°
2026-05-09 04:39 35.82273 -112.58324 33912 ft 431 kts 251°
2026-05-09 04:40 35.80057 -112.65104 33908 ft 431 kts 251°
2026-05-09 04:40 35.77854 -112.71830 33901 ft 431 kts 251°
2026-05-09 04:41 35.75659 -112.78516 33895 ft 432 kts 251°
2026-05-09 04:41 35.73447 -112.85237 33896 ft 432 kts 251°
2026-05-09 04:42 35.71239 -112.91933 33898 ft 433 kts 251°
2026-05-09 04:42 35.69012 -112.98673 33892 ft 433 kts 251°
2026-05-09 04:43 35.66770 -113.05442 33881 ft 434 kts 251°
2026-05-09 04:43 35.64525 -113.12205 33866 ft 434 kts 251°
2026-05-09 04:44 35.62304 -113.18884 33876 ft 434 kts 251°
2026-05-09 04:44 35.60073 -113.25572 33865 ft 435 kts 251°
2026-05-09 04:45 35.57824 -113.32283 33862 ft 436 kts 251°
2026-05-09 04:45 35.55540 -113.39081 33852 ft 436 kts 251°
2026-05-09 04:46 35.53251 -113.45883 33842 ft 437 kts 251°
2026-05-09 04:46 35.50955 -113.52694 33840 ft 438 kts 251°
2026-05-09 04:47 35.48681 -113.59425 33837 ft 438 kts 251°
2026-05-09 04:47 35.46394 -113.66179 33858 ft 439 kts 251°
2026-05-09 04:48 35.44111 -113.72905 33904 ft 439 kts 251°
2026-05-09 04:48 35.42202 -113.78520 33914 ft 439 kts 251°
2026-05-09 04:49 35.39907 -113.85255 33960 ft 440 kts 251°
2026-05-09 04:49 35.37597 -113.92020 33984 ft 440 kts 251°
2026-05-09 04:50 35.35299 -113.98735 34004 ft 441 kts 251°
2026-05-09 04:50 35.33004 -114.05427 33985 ft 441 kts 251°
2026-05-09 04:51 35.28327 -114.19018 33905 ft 441 kts 251°
2026-05-09 04:52 35.25983 -114.25808 33864 ft 441 kts 251°
2026-05-09 04:52 35.23612 -114.32661 33809 ft 441 kts 251°
2026-05-09 04:53 35.21244 -114.39491 33745 ft 441 kts 251°
2026-05-09 04:53 35.18869 -114.46324 33759 ft 441 kts 251°
2026-05-09 04:54 35.16522 -114.53066 33764 ft 442 kts 251°
2026-05-09 04:54 35.14132 -114.59916 33793 ft 443 kts 250°
2026-05-09 04:55 35.11758 -114.66730 33800 ft 443 kts 251°
2026-05-09 04:55 35.09398 -114.73542 33789 ft 443 kts 251°
2026-05-09 04:56 35.07007 -114.80431 33795 ft 443 kts 251°
2026-05-09 04:56 35.04624 -114.87277 33793 ft 443 kts 251°
2026-05-09 04:57 35.02124 -114.94002 33787 ft 446 kts 246°
2026-05-09 04:57 34.99250 -115.00558 33793 ft 447 kts 245°
2026-05-09 04:58 34.96340 -115.07090 33808 ft 447 kts 245°
2026-05-09 04:58 34.93462 -115.13659 33816 ft 447 kts 246°
2026-05-09 04:59 34.90604 -115.20228 33836 ft 448 kts 246°
2026-05-09 04:59 34.87785 -115.26703 33836 ft 448 kts 246°
2026-05-09 05:00 34.84948 -115.33203 33829 ft 449 kts 246°
2026-05-09 05:00 34.82098 -115.39720 33846 ft 449 kts 246°
2026-05-09 05:01 34.79181 -115.46390 33844 ft 449 kts 247°
2026-05-09 05:01 34.76632 -115.53059 33847 ft 447 kts 250°
2026-05-09 05:02 34.74228 -115.59797 33840 ft 447 kts 250°
2026-05-09 05:02 34.71760 -115.66600 33840 ft 447 kts 250°
2026-05-09 05:03 34.69253 -115.73400 33844 ft 447 kts 250°
2026-05-09 05:03 34.66715 -115.80250 33848 ft 447 kts 250°
2026-05-09 05:04 34.64204 -115.87015 33772 ft 434 kts 250°
2026-05-09 05:04 34.62980 -115.90308 33392 ft 429 kts 250°
2026-05-09 05:04 34.61781 -115.93550 33057 ft 424 kts 250°
2026-05-09 05:04 34.60620 -115.96699 32681 ft 420 kts 250°
2026-05-09 05:05 34.59441 -115.99901 32306 ft 417 kts 250°
2026-05-09 05:05 34.58306 -116.02981 31948 ft 413 kts 249°
2026-05-09 05:05 34.57138 -116.06147 31582 ft 410 kts 249°
2026-05-09 05:05 34.55996 -116.09237 31224 ft 408 kts 249°
2026-05-09 05:06 34.54856 -116.12319 30854 ft 405 kts 249°
2026-05-09 05:06 34.53725 -116.15372 30499 ft 402 kts 249°
2026-05-09 05:06 34.52607 -116.18389 30151 ft 400 kts 249°
2026-05-09 05:06 34.51543 -116.21257 29792 ft 398 kts 249°
2026-05-09 05:07 34.50460 -116.24171 29393 ft 395 kts 249°
2026-05-09 05:07 34.49340 -116.27182 28997 ft 392 kts 248°
2026-05-09 05:07 34.48234 -116.30153 28645 ft 388 kts 248°
2026-05-09 05:07 34.47143 -116.33083 28264 ft 385 kts 248°
2026-05-09 05:08 34.46054 -116.36005 27914 ft 381 kts 248°
2026-05-09 05:08 34.44996 -116.38843 27557 ft 378 kts 248°
2026-05-09 05:08 34.44012 -116.41478 27229 ft 375 kts 248°
2026-05-09 05:08 34.42981 -116.44239 26887 ft 373 kts 248°
2026-05-09 05:09 34.41935 -116.47032 26540 ft 370 kts 248°
2026-05-09 05:09 34.40878 -116.49775 26202 ft 368 kts 246°
2026-05-09 05:09 34.39767 -116.52476 25872 ft 365 kts 245°
2026-05-09 05:09 34.38672 -116.55092 25539 ft 363 kts 245°
2026-05-09 05:10 34.37540 -116.57799 25189 ft 360 kts 245°
2026-05-09 05:10 34.36436 -116.60459 24847 ft 359 kts 245°
2026-05-09 05:10 34.35327 -116.63143 24507 ft 357 kts 244°
2026-05-09 05:10 34.34223 -116.65817 24157 ft 356 kts 244°
2026-05-09 05:11 34.33126 -116.68480 23788 ft 355 kts 244°
2026-05-09 05:11 34.32049 -116.71143 23369 ft 355 kts 245°
2026-05-09 05:11 34.30989 -116.73786 22938 ft 354 kts 245°
2026-05-09 05:11 34.29945 -116.76391 22561 ft 353 kts 245°
2026-05-09 05:12 34.28888 -116.79024 22152 ft 352 kts 245°
2026-05-09 05:12 34.27834 -116.81648 21763 ft 350 kts 245°
2026-05-09 05:12 34.26772 -116.84283 21373 ft 349 kts 245°
2026-05-09 05:12 34.25761 -116.86790 21003 ft 347 kts 245°
2026-05-09 05:13 34.24698 -116.89426 20643 ft 346 kts 245°
2026-05-09 05:13 34.23656 -116.92007 20266 ft 345 kts 245°
2026-05-09 05:13 34.22615 -116.94581 19891 ft 344 kts 245°
2026-05-09 05:13 34.21571 -116.97160 19512 ft 343 kts 245°
2026-05-09 05:14 34.20602 -116.99772 19150 ft 342 kts 251°
2026-05-09 05:14 34.19867 -117.02455 18760 ft 342 kts 253°
2026-05-09 05:14 34.19188 -117.05179 18388 ft 340 kts 254°
2026-05-09 05:14 34.18527 -117.07790 17979 ft 341 kts 253°
2026-05-09 05:15 34.17815 -117.10491 17585 ft 340 kts 253°
2026-05-09 05:15 34.17105 -117.13128 17202 ft 339 kts 253°
2026-05-09 05:15 34.16376 -117.15811 16820 ft 337 kts 253°
2026-05-09 05:15 34.15646 -117.18469 16462 ft 335 kts 252°
2026-05-09 05:16 34.14919 -117.21109 16172 ft 333 kts 252°
2026-05-09 05:16 34.14207 -117.23692 15828 ft 331 kts 252°
2026-05-09 05:16 34.13478 -117.26335 15475 ft 329 kts 252°
2026-05-09 05:16 34.12785 -117.28851 15140 ft 327 kts 252°
2026-05-09 05:17 34.12090 -117.31374 14804 ft 326 kts 252°
2026-05-09 05:17 34.11427 -117.33775 14550 ft 321 kts 252°
2026-05-09 05:17 34.10774 -117.36136 14168 ft 315 kts 252°
2026-05-09 05:17 34.10154 -117.38449 13863 ft 308 kts 253°
2026-05-09 05:18 34.09567 -117.40804 13516 ft 302 kts 254°
2026-05-09 05:18 34.09000 -117.43105 13229 ft 298 kts 253°
2026-05-09 05:18 34.08421 -117.45436 12930 ft 298 kts 253°
2026-05-09 05:18 34.07818 -117.47851 12653 ft 302 kts 253°
2026-05-09 05:19 34.07209 -117.50226 12367 ft 304 kts 251°
2026-05-09 05:19 34.06444 -117.52527 12063 ft 301 kts 246°
2026-05-09 05:19 34.05624 -117.54745 11778 ft 300 kts 246°
2026-05-09 05:19 34.04778 -117.57009 11501 ft 304 kts 246°
2026-05-09 05:20 34.03915 -117.59346 11199 ft 306 kts 246°
2026-05-09 05:20 34.03068 -117.61672 10892 ft 304 kts 246°
2026-05-09 05:20 34.02246 -117.63947 10599 ft 302 kts 246°
2026-05-09 05:20 34.01425 -117.66222 10313 ft 300 kts 246°
2026-05-09 05:21 34.00656 -117.68487 10006 ft 299 kts 253°
2026-05-09 05:21 34.00355 -117.70821 9963 ft 287 kts 264°
2026-05-09 05:21 34.00176 -117.73121 9380 ft 289 kts 264°
2026-05-09 05:21 33.99971 -117.75479 8967 ft 284 kts 263°
2026-05-09 05:22 33.99761 -117.77763 8666 ft 276 kts 263°
2026-05-09 05:22 33.99543 -117.80021 8379 ft 270 kts 263°
2026-05-09 05:22 33.99328 -117.82216 8124 ft 272 kts 263°
2026-05-09 05:22 33.99113 -117.84427 7857 ft 274 kts 263°
2026-05-09 05:23 33.98893 -117.86692 7577 ft 276 kts 263°
2026-05-09 05:23 33.98670 -117.88987 7298 ft 275 kts 263°
2026-05-09 05:23 33.98499 -117.91223 7025 ft 274 kts 266°
2026-05-09 05:23 33.98368 -117.93499 6754 ft 273 kts 265°
2026-05-09 05:24 33.98188 -117.95717 6478 ft 272 kts 263°
2026-05-09 05:24 33.97970 -117.97920 6191 ft 271 kts 263°
2026-05-09 05:24 33.97744 -118.00065 6093 ft 263 kts 262°
2026-05-09 05:24 33.97512 -118.02230 5792 ft 265 kts 262°
2026-05-09 05:25 33.97279 -118.04411 5433 ft 262 kts 263°
2026-05-09 05:25 33.97056 -118.06511 5149 ft 253 kts 263°
2026-05-09 05:25 33.96646 -118.10392 4510 ft 233 kts 263°
2026-05-09 05:26 33.96448 -118.12266 4218 ft 224 kts 263°
2026-05-09 05:26 33.96256 -118.14096 3960 ft 215 kts 263°
2026-05-09 05:26 33.96073 -118.15835 3695 ft 207 kts 263°
2026-05-09 05:26 33.95901 -118.17477 3465 ft 199 kts 262°
2026-05-09 05:27 33.95732 -118.19089 3213 ft 192 kts 262°
2026-05-09 05:27 33.95568 -118.20650 2972 ft 187 kts 262°
2026-05-09 05:27 33.95406 -118.22196 2745 ft 186 kts 262°
2026-05-09 05:27 33.95251 -118.23686 2503 ft 179 kts 262°
2026-05-09 05:28 33.95102 -118.25108 2275 ft 176 kts 262°
2026-05-09 05:28 33.94954 -118.26535 2041 ft 172 kts 263°
2026-05-09 05:28 33.94809 -118.27926 1837 ft 173 kts 263°
2026-05-09 05:28 33.94669 -118.29273 1643 ft 171 kts 263°
2026-05-09 05:29 33.94527 -118.30644 1371 ft 162 kts 262°
2026-05-09 05:29 33.94393 -118.31937 1188 ft 158 kts 262°
2026-05-09 05:29 33.94260 -118.33204 971 ft 148 kts 262°
2026-05-09 05:29 33.94133 -118.34403 729 ft 141 kts 262°
2026-05-09 05:30 33.94013 -118.35553 549 ft 140 kts 261°
2026-05-09 05:30 33.93899 -118.36644 379 ft 139 kts 262°
2026-05-09 05:30 33.93789 -118.37756 227 ft 143 kts 263°
2026-05-09 05:30 33.93679 -118.38855 97 ft 134 kts 263°
2026-05-09 05:31 33.93582 -118.39790 93 ft 102 kts 263°
2026-05-09 05:31 33.93514 -118.40447 95 ft 63 kts 263°
2026-05-09 05:31 33.93479 -118.40894 93 ft 48 kts 271°
2026-05-09 05:31 33.93523 -118.41133 93 ft 8 kts 293°
2026-05-09 05:32 33.93532 -118.41158 96 ft 3 kts 292°
2026-05-09 05:32 33.93538 -118.41185 93 ft 3 kts 283°
2026-05-09 05:32 33.93552 -118.41208 94 ft 4 kts 315°
2026-05-09 05:32 33.93567 -118.41225 94 ft 0 kts 316°
2026-05-09 05:33 33.93572 -118.41232 94 ft 5 kts 315°
2026-05-09 05:33 33.93625 -118.41265 95 ft 11 kts 352°
2026-05-09 05:33 33.93699 -118.41276 95 ft 11 kts 354°
2026-05-09 05:34 33.93771 -118.41255 93 ft 11 kts 15°
2026-05-09 05:34 33.93835 -118.41217 95 ft 11 kts 65°
2026-05-09 05:34 33.93845 -118.41129 92 ft 11 kts 83°
2026-05-09 05:34 33.93855 -118.41043 93 ft 10 kts 83°
2026-05-09 05:35 33.93863 -118.40961 93 ft 10 kts 83°
2026-05-09 05:35 33.93871 -118.40881 92 ft 10 kts 83°
2026-05-09 05:35 33.93882 -118.40831 92 ft 10 kts 57°
2026-05-09 05:35 33.93963 -118.40816 94 ft 9 kts 355°
2026-05-09 05:36 33.94024 -118.40825 93 ft 9 kts 352°
2026-05-09 05:36 33.94081 -118.40834 93 ft 9 kts 353°
2026-05-09 05:36 33.94122 -118.40840 93 ft 8 kts 353°
2026-05-09 05:36 33.94158 -118.40817 92 ft 7 kts 83°
2026-05-09 05:37 33.94160 -118.40776 92 ft 3 kts 81°
2026-05-09 05:37 33.94162 -118.40756 92 ft 1 kts 83°
2026-05-09 05:37 33.94162 -118.40754 92 ft 0 kts 83°
2026-05-09 05:37 33.94162 -118.40753 92 ft 0 kts 83°